Time,TemperatureF,DewpointF,PressureIn,WindDirection,WindDirectionDegrees,WindSpeedMPH,WindSpeedGustMPH,Humidity,HourlyPrecipIn,Conditions,Clouds,dailyrainin,SoftwareType,DateUTC
2013-04-06 00:02:00,36.0,26.0,30.01,SSW,206,9.0,17.0,68,0.00,,,0.04,,2013-04-06 06:02:00,
2013-04-06 00:12:00,36.0,26.0,30.01,SSW,206,9.0,17.0,68,0.00,,,0.04,,2013-04-06 06:12:00,
2013-04-06 00:22:00,36.0,26.0,30.01,South,177,10.0,15.0,67,0.00,,,0.04,,2013-04-06 06:22:00,
2013-04-06 00:32:00,36.0,25.0,30.01,South,176,7.0,20.0,65,0.00,,,0.04,,2013-04-06 06:32:00,
2013-04-06 00:42:00,36.0,25.0,30.01,South,176,7.0,20.0,65,0.00,,,0.04,,2013-04-06 06:42:00,
2013-04-06 00:53:00,36.0,26.0,30.01,SW,220,5.0,15.0,66,0.00,,,0.04,,2013-04-06 06:53:00,
2013-04-06 01:03:00,35.0,24.0,30.01,West,279,6.0,11.0,64,0.00,,,0.04,,2013-04-06 07:03:00,
2013-04-06 01:12:00,35.0,24.0,30.01,West,279,6.0,11.0,64,0.00,,,0.04,,2013-04-06 07:12:00,
2013-04-06 01:22:00,35.0,24.0,30.01,WNW,286,7.0,15.0,63,0.00,,,0.04,,2013-04-06 07:22:00,
2013-04-06 01:33:00,35.0,24.0,30.01,SSW,205,10.0,19.0,63,0.00,,,0.04,,2013-04-06 07:33:00,
2013-04-06 01:43:00,35.0,24.0,30.01,SSW,205,10.0,19.0,63,0.00,,,0.04,,2013-04-06 07:43:00,
2013-04-06 01:53:00,35.0,23.0,30.01,South,173,11.0,26.0,62,0.00,,,0.04,,2013-04-06 07:53:00,
2013-04-06 02:02:00,35.0,23.0,30.01,WNW,300,9.0,21.0,61,0.00,,,0.04,,2013-04-06 08:02:00,
2013-04-06 02:12:00,35.0,23.0,30.01,WNW,300,9.0,21.0,61,0.00,,,0.04,,2013-04-06 08:12:00,
2013-04-06 02:22:00,36.0,22.0,30.01,SSW,206,9.0,26.0,57,0.00,,,0.04,,2013-04-06 08:22:00,
2013-04-06 02:32:00,36.0,21.0,30.00,West,264,15.0,28.0,54,0.00,,,0.04,,2013-04-06 08:32:00,
2013-04-06 02:42:00,36.0,21.0,30.00,West,264,15.0,28.0,54,0.00,,,0.04,,2013-04-06 08:42:00,
2013-04-06 02:52:00,36.0,21.0,30.00,West,280,14.0,28.0,55,0.00,,,0.04,,2013-04-06 08:52:00,
2013-04-06 03:02:00,36.0,21.0,30.00,West,277,10.0,20.0,55,0.00,,,0.04,,2013-04-06 09:02:00,
2013-04-06 03:12:00,36.0,21.0,30.00,West,277,10.0,20.0,55,0.00,,,0.04,,2013-04-06 09:12:00,
2013-04-06 03:22:00,35.0,21.0,30.00,West,267,12.0,21.0,57,0.00,,,0.04,,2013-04-06 09:22:00,
2013-04-06 03:32:00,36.0,22.0,30.01,NW,313,17.0,29.0,56,0.00,,,0.04,,2013-04-06 09:32:00,
2013-04-06 03:43:00,36.0,22.0,30.01,NW,313,17.0,29.0,56,0.00,,,0.04,,2013-04-06 09:43:00,
2013-04-06 03:53:00,35.0,22.0,30.01,WSW,254,11.0,25.0,58,0.00,,,0.04,,2013-04-06 09:53:00,
2013-04-06 04:03:00,35.0,22.0,30.02,WNW,282,14.0,27.0,59,0.00,,,0.04,,2013-04-06 10:03:00,
2013-04-06 04:13:00,35.0,22.0,30.02,WNW,282,14.0,27.0,59,0.00,,,0.04,,2013-04-06 10:13:00,
2013-04-06 04:22:00,34.0,22.0,30.02,West,259,15.0,26.0,60,0.00,,,0.04,,2013-04-06 10:22:00,
2013-04-06 04:33:00,34.0,22.0,30.01,NW,308,13.0,24.0,61,0.00,,,0.04,,2013-04-06 10:33:00,
2013-04-06 04:42:00,34.0,22.0,30.01,NW,308,13.0,24.0,61,0.00,,,0.04,,2013-04-06 10:42:00,
2013-04-06 04:53:00,34.0,23.0,30.01,WSW,241,13.0,20.0,63,0.00,,,0.04,,2013-04-06 10:53:00,
2013-04-06 05:02:00,34.0,22.0,30.01,WSW,248,8.0,25.0,62,0.00,,,0.04,,2013-04-06 11:02:00,
2013-04-06 05:12:00,34.0,22.0,30.01,WSW,248,8.0,25.0,62,0.00,,,0.04,,2013-04-06 11:12:00,
2013-04-06 05:22:00,34.0,23.0,30.02,WNW,284,15.0,26.0,63,0.00,,,0.04,,2013-04-06 11:22:00,
2013-04-06 05:32:00,33.0,22.0,30.02,WSW,240,12.0,19.0,63,0.00,,,0.04,,2013-04-06 11:32:00,
2013-04-06 05:42:00,33.0,22.0,30.02,WSW,240,12.0,19.0,63,0.00,,,0.04,,2013-04-06 11:42:00,
2013-04-06 05:53:00,33.0,22.0,30.02,WSW,244,9.0,15.0,64,0.00,,,0.04,,2013-04-06 11:53:00,
2013-04-06 06:02:00,32.0,22.0,30.04,WSW,248,7.0,13.0,65,0.00,,,0.04,,2013-04-06 12:02:00,
2013-04-06 06:12:00,32.0,22.0,30.04,WSW,248,7.0,13.0,65,0.00,,,0.04,,2013-04-06 12:12:00,
2013-04-06 06:22:00,32.0,22.0,30.04,SW,233,11.0,15.0,66,0.00,,,0.04,,2013-04-06 12:22:00,
2013-04-06 06:32:00,32.0,22.0,30.03,SSW,209,8.0,15.0,65,0.00,,,0.04,,2013-04-06 12:32:00,
2013-04-06 06:43:00,32.0,22.0,30.03,SSW,209,8.0,15.0,65,0.00,,,0.04,,2013-04-06 12:43:00,
2013-04-06 06:52:00,32.0,22.0,30.04,WSW,252,9.0,19.0,66,0.00,,,0.04,,2013-04-06 12:52:00,
2013-04-06 07:02:00,32.0,22.0,30.05,SW,227,10.0,19.0,67,0.00,,,0.04,,2013-04-06 13:02:00,
2013-04-06 07:12:00,32.0,22.0,30.05,SW,227,10.0,19.0,67,0.00,,,0.04,,2013-04-06 13:12:00,
2013-04-06 07:23:00,32.0,22.0,30.05,South,178,11.0,17.0,65,0.00,,,0.04,,2013-04-06 13:23:00,
2013-04-06 07:32:00,33.0,22.0,30.05,West,269,10.0,15.0,63,0.00,,,0.04,,2013-04-06 13:32:00,
2013-04-06 07:42:00,33.0,22.0,30.05,West,269,10.0,15.0,63,0.00,,,0.04,,2013-04-06 13:42:00,
2013-04-06 07:53:00,34.0,22.0,30.05,SW,231,9.0,15.0,60,0.00,,,0.04,,2013-04-06 13:53:00,
2013-04-06 08:03:00,34.0,21.0,30.06,WSW,244,12.0,16.0,59,0.00,,,0.04,,2013-04-06 14:03:00,
2013-04-06 08:12:00,36.0,22.0,30.04,WSW,244,9.0,15.0,57,0.00,,,0.04,,2013-04-06 14:12:00,
2013-04-06 08:22:00,36.0,22.0,30.04,WSW,244,9.0,15.0,57,0.00,,,0.04,,2013-04-06 14:22:00,
2013-04-06 08:32:00,37.0,22.0,30.04,WSW,251,10.0,14.0,55,0.00,,,0.04,,2013-04-06 14:32:00,
2013-04-06 08:42:00,37.0,22.0,30.04,WSW,251,10.0,14.0,55,0.00,,,0.04,,2013-04-06 14:42:00,
2013-04-06 08:53:00,38.0,22.0,30.03,SW,219,9.0,13.0,53,0.00,,,0.04,,2013-04-06 14:53:00,
2013-04-06 09:02:00,39.0,23.0,30.03,SSW,202,7.0,13.0,53,0.00,,,0.04,,2013-04-06 15:02:00,
2013-04-06 09:12:00,39.0,23.0,30.03,SSW,202,7.0,13.0,53,0.00,,,0.04,,2013-04-06 15:12:00,
2013-04-06 09:22:00,40.0,25.0,30.03,SW,232,1.0,14.0,54,0.00,,,0.04,,2013-04-06 15:22:00,
2013-04-06 09:33:00,41.0,25.0,30.02,WNW,290,8.0,18.0,53,0.00,,,0.04,,2013-04-06 15:33:00,
2013-04-06 09:43:00,41.0,25.0,30.02,WNW,290,8.0,18.0,53,0.00,,,0.04,,2013-04-06 15:43:00,
2013-04-06 09:53:00,41.0,24.0,30.02,WSW,256,10.0,19.0,51,0.00,,,0.04,,2013-04-06 15:53:00,
2013-04-06 10:04:00,42.0,24.0,30.02,SW,227,12.0,23.0,48,0.00,,,0.04,,2013-04-06 16:04:00,
2013-04-06 10:17:00,42.0,24.0,30.02,SW,227,12.0,23.0,48,0.00,,,0.04,,2013-04-06 16:17:00,
2013-04-06 10:23:00,43.0,25.0,30.02,SW,217,2.0,21.0,48,0.00,,,0.04,,2013-04-06 16:23:00,
2013-04-06 10:32:00,42.0,22.0,30.02,WSW,254,16.0,26.0,45,0.00,,,0.04,,2013-04-06 16:32:00,
2013-04-06 10:42:00,42.0,22.0,30.02,WSW,254,16.0,26.0,45,0.00,,,0.04,,2013-04-06 16:42:00,
2013-04-06 10:53:00,43.0,23.0,30.02,SSW,203,12.0,23.0,45,0.00,,,0.04,,2013-04-06 16:53:00,
2013-04-06 11:02:00,44.0,23.0,30.03,WSW,250,13.0,24.0,44,0.00,,,0.04,,2013-04-06 17:02:00,
2013-04-06 11:12:00,44.0,23.0,30.03,WSW,250,13.0,24.0,44,0.00,,,0.04,,2013-04-06 17:12:00,
2013-04-06 11:22:00,45.0,23.0,30.03,NW,309,12.0,25.0,41,0.00,,,0.04,,2013-04-06 17:22:00,
2013-04-06 11:32:00,45.0,23.0,30.04,West,280,13.0,29.0,41,0.00,,,0.04,,2013-04-06 17:32:00,
2013-04-06 11:42:00,45.0,23.0,30.04,West,280,13.0,29.0,41,0.00,,,0.04,,2013-04-06 17:42:00,
2013-04-06 11:52:00,43.0,23.0,30.04,WSW,246,14.0,22.0,45,0.00,,,0.04,,2013-04-06 17:52:00,
2013-04-06 12:02:00,43.0,23.0,30.04,SW,221,11.0,22.0,44,0.00,,,0.04,,2013-04-06 18:02:00,
2013-04-06 12:12:00,43.0,23.0,30.04,SW,221,11.0,22.0,44,0.00,,,0.04,,2013-04-06 18:12:00,
2013-04-06 12:23:00,44.0,22.0,30.03,SSW,207,11.0,24.0,42,0.00,,,0.04,,2013-04-06 18:23:00,
2013-04-06 12:32:00,43.0,22.0,30.03,SW,233,11.0,27.0,42,0.00,,,0.04,,2013-04-06 18:32:00,
2013-04-06 12:42:00,43.0,22.0,30.03,SW,233,11.0,27.0,42,0.00,,,0.04,,2013-04-06 18:42:00,
2013-04-06 12:52:00,44.0,21.0,30.03,NW,313,14.0,27.0,40,0.00,,,0.04,,2013-04-06 18:52:00,
2013-04-06 13:02:00,46.0,22.0,30.03,WSW,252,4.0,22.0,39,0.00,,,0.04,,2013-04-06 19:02:00,
2013-04-06 13:12:00,46.0,22.0,30.03,WSW,252,4.0,22.0,39,0.00,,,0.04,,2013-04-06 19:12:00,
2013-04-06 13:22:00,47.0,23.0,30.01,SSE,162,1.0,19.0,38,0.00,,,0.04,,2013-04-06 19:22:00,
2013-04-06 13:32:00,48.0,22.0,30.01,West,281,3.0,20.0,36,0.00,,,0.04,,2013-04-06 19:32:00,
2013-04-06 13:42:00,48.0,22.0,30.01,West,281,3.0,20.0,36,0.00,,,0.04,,2013-04-06 19:42:00,
2013-04-06 13:53:00,47.0,21.0,30.01,West,269,7.0,23.0,36,0.00,,,0.04,,2013-04-06 19:53:00,
2013-04-06 14:02:00,47.0,21.0,30.00,West,275,14.0,29.0,35,0.00,,,0.04,,2013-04-06 20:02:00,
2013-04-06 14:12:00,47.0,21.0,30.00,West,275,14.0,29.0,35,0.00,,,0.04,,2013-04-06 20:12:00,
2013-04-06 14:22:00,45.0,22.0,30.00,West,268,12.0,22.0,40,0.00,,,0.04,,2013-04-06 20:22:00,
2013-04-06 14:32:00,46.0,22.0,30.01,West,263,10.0,24.0,38,0.00,,,0.04,,2013-04-06 20:32:00,
2013-04-06 14:42:00,46.0,22.0,30.01,West,263,10.0,24.0,38,0.00,,,0.04,,2013-04-06 20:42:00,
2013-04-06 14:52:00,48.0,22.0,29.98,SW,231,13.0,32.0,36,0.00,,,0.04,,2013-04-06 20:52:00,
2013-04-06 15:02:00,47.0,21.0,29.98,WSW,257,14.0,23.0,36,0.00,,,0.04,,2013-04-06 21:02:00,
2013-04-06 15:13:00,49.0,23.0,29.98,SW,215,11.0,28.0,36,0.00,,,0.04,,2013-04-06 21:13:00,
2013-04-06 15:22:00,49.0,23.0,29.98,SW,215,11.0,28.0,36,0.00,,,0.04,,2013-04-06 21:22:00,
2013-04-06 15:33:00,49.0,23.0,29.98,WSW,258,15.0,32.0,36,0.00,,,0.04,,2013-04-06 21:33:00,
2013-04-06 15:43:00,49.0,23.0,29.98,WSW,258,15.0,32.0,36,0.00,,,0.04,,2013-04-06 21:43:00,
2013-04-06 15:53:00,46.0,25.0,30.00,NW,319,7.0,25.0,43,0.00,,,0.04,,2013-04-06 21:53:00,
2013-04-06 16:03:00,43.0,29.0,29.98,WNW,302,1.0,19.0,57,0.00,,,0.04,,2013-04-06 22:03:00,
2013-04-06 16:13:00,43.0,29.0,29.98,WNW,302,1.0,19.0,57,0.00,,,0.04,,2013-04-06 22:13:00,
2013-04-06 16:23:00,47.0,26.0,29.98,SSW,212,2.0,16.0,44,0.00,,,0.04,,2013-04-06 22:23:00,
2013-04-06 16:34:00,48.0,23.0,29.97,SSW,206,6.0,20.0,37,0.00,,,0.04,,2013-04-06 22:34:00,
2013-04-06 16:43:00,48.0,23.0,29.97,SSW,206,6.0,20.0,37,0.00,,,0.04,,2013-04-06 22:43:00,
2013-04-06 16:53:00,47.0,23.0,29.97,WSW,237,6.0,19.0,38,0.00,,,0.04,,2013-04-06 22:53:00,
2013-04-06 17:03:00,46.0,22.0,29.99,West,275,11.0,22.0,39,0.00,,,0.04,,2013-04-06 23:03:00,
2013-04-06 17:13:00,46.0,22.0,29.99,West,275,11.0,22.0,39,0.00,,,0.04,,2013-04-06 23:13:00,
2013-04-06 17:23:00,46.0,23.0,29.99,West,259,8.0,18.0,40,0.00,,,0.04,,2013-04-06 23:23:00,
2013-04-06 17:33:00,46.0,23.0,29.98,SSW,203,6.0,18.0,40,0.00,,,0.04,,2013-04-06 23:33:00,
2013-04-06 17:42:00,46.0,23.0,29.98,SSW,203,6.0,18.0,40,0.00,,,0.04,,2013-04-06 23:42:00,
2013-04-06 17:53:00,46.0,24.0,29.99,SW,235,10.0,19.0,41,0.00,,,0.04,,2013-04-06 23:53:00,
2013-04-06 18:02:00,47.0,22.0,29.98,WSW,240,11.0,21.0,37,0.00,,,0.04,,2013-04-07 00:02:00,
2013-04-06 18:12:00,47.0,22.0,29.98,WSW,240,11.0,21.0,37,0.00,,,0.04,,2013-04-07 00:12:00,
2013-04-06 18:22:00,46.0,23.0,29.98,South,188,12.0,18.0,40,0.00,,,0.04,,2013-04-07 00:22:00,
2013-04-06 18:32:00,46.0,25.0,29.99,South,186,9.0,18.0,43,0.00,,,0.04,,2013-04-07 00:32:00,
2013-04-06 18:42:00,46.0,25.0,29.99,South,186,9.0,18.0,43,0.00,,,0.04,,2013-04-07 00:42:00,
2013-04-06 18:53:00,44.0,26.0,29.98,SSW,196,10.0,13.0,48,0.00,,,0.04,,2013-04-07 00:53:00,
2013-04-06 19:02:00,45.0,24.0,29.99,SW,215,7.0,18.0,44,0.00,,,0.04,,2013-04-07 01:02:00,
2013-04-06 19:12:00,45.0,24.0,29.99,SW,215,7.0,18.0,44,0.00,,,0.04,,2013-04-07 01:12:00,
2013-04-06 19:23:00,41.0,27.0,30.01,NW,313,8.0,19.0,58,0.00,,,0.04,,2013-04-07 01:23:00,
2013-04-06 19:32:00,40.0,28.0,29.99,WNW,302,5.0,12.0,61,0.00,,,0.04,,2013-04-07 01:32:00,
2013-04-06 19:42:00,40.0,28.0,29.99,WNW,302,5.0,12.0,61,0.00,,,0.04,,2013-04-07 01:42:00,
2013-04-06 19:53:00,41.0,27.0,29.98,SW,226,4.0,15.0,56,0.00,,,0.00,,2013-04-07 01:53:00,
2013-04-06 20:03:00,42.0,26.0,29.99,SW,223,6.0,14.0,53,0.00,,,0.00,,2013-04-07 02:03:00,
2013-04-06 20:12:00,42.0,26.0,29.99,SW,223,6.0,14.0,53,0.00,,,0.00,,2013-04-07 02:12:00,
2013-04-06 20:23:00,42.0,26.0,29.99,South,186,5.0,11.0,53,0.00,,,0.00,,2013-04-07 02:23:00,
2013-04-06 20:32:00,42.0,27.0,30.01,SW,217,5.0,11.0,54,0.00,,,0.00,,2013-04-07 02:32:00,
2013-04-06 20:42:00,42.0,27.0,30.01,SW,217,5.0,11.0,54,0.00,,,0.00,,2013-04-07 02:42:00,
2013-04-06 20:52:00,42.0,27.0,30.01,West,259,4.0,11.0,54,0.00,,,0.00,,2013-04-07 02:52:00,
2013-04-06 21:02:00,41.0,27.0,30.01,SW,223,5.0,9.0,56,0.00,,,0.00,,2013-04-07 03:02:00,
2013-04-06 21:12:00,41.0,27.0,30.01,SW,223,5.0,9.0,56,0.00,,,0.00,,2013-04-07 03:12:00,
2013-04-06 21:22:00,41.0,27.0,30.01,SW,217,3.0,7.0,56,0.00,,,0.00,,2013-04-07 03:22:00,
2013-04-06 21:33:00,41.0,27.0,30.00,SW,230,5.0,7.0,57,0.00,,,0.00,,2013-04-07 03:33:00,
2013-04-06 21:43:00,41.0,27.0,30.00,SW,230,5.0,7.0,57,0.00,,,0.00,,2013-04-07 03:43:00,
2013-04-06 22:03:00,39.0,28.0,30.01,WNW,291,5.0,12.0,65,0.00,,,0.00,,2013-04-07 04:03:00,
2013-04-06 22:13:00,39.0,28.0,30.01,WNW,291,5.0,12.0,65,0.00,,,0.00,,2013-04-07 04:13:00,
2013-04-06 22:23:00,39.0,28.0,30.01,WNW,292,5.0,10.0,65,0.00,,,0.00,,2013-04-07 04:23:00,
2013-04-06 22:32:00,38.0,28.0,30.01,WNW,283,4.0,7.0,67,0.00,,,0.00,,2013-04-07 04:32:00,
2013-04-06 22:43:00,38.0,28.0,30.01,WNW,283,4.0,7.0,67,0.00,,,0.00,,2013-04-07 04:43:00,
2013-04-06 22:53:00,38.0,29.0,30.00,West,272,5.0,10.0,69,0.00,,,0.00,,2013-04-07 04:53:00,
2013-04-06 23:02:00,38.0,29.0,29.99,WNW,287,10.0,15.0,69,0.00,,,0.00,,2013-04-07 05:02:00,
2013-04-06 23:12:00,38.0,29.0,29.99,WNW,287,10.0,15.0,69,0.00,,,0.00,,2013-04-07 05:12:00,
2013-04-06 23:22:00,38.0,29.0,29.99,WNW,286,6.0,14.0,70,0.00,,,0.00,,2013-04-07 05:22:00,
2013-04-06 23:33:00,37.0,29.0,29.99,West,273,8.0,13.0,74,0.00,,,0.00,,2013-04-07 05:33:00,
2013-04-06 23:42:00,37.0,29.0,29.99,West,273,8.0,13.0,74,0.00,,,0.00,,2013-04-07 05:42:00,
2013-04-06 23:52:00,36.0,30.0,29.99,WNW,299,5.0,15.0,79,0.00,,,0.00,,2013-04-07 05:52:00,